Location: Hurecourt
(47.9030°N, 6.0653°E)
Time: 08:27:40
(UTC+00:00)

USA 238 DEB - Pass Details

Date: 14 July 2020
Orbit: 1009 x 1203 km, 63.4° (Epoch: 11 August)

Event Time Altitude Azimuth Distance (km) Brightness Sun altitude
Exits shadow 02:58:26 - 197° (SSW) 3,267 5.7 -7.7°
Reaches altitude 10° 02:59:45 10° 194° (SSW) 2,801 5.4 -7.5°
Maximum altitude 03:06:05 51° 121° (ESE) 1,288 4.3 -6.8°
Drops below altitude 10° 03:12:41 10° 47° (NE) 2,921 7.9 -6.0°
Sets 03:15:28 0° 43° (NE) 3,910 9.3 -5.6°
